Starlink 35503

operational
NORAD ID: 66246 Int'l Des: 2025-245 Owner: SPXS Country: US Constellation: starlink
LEOCIRCULAR

Über Starlink 35503

Beschreibung wird geladen...

Live-Position

3D-Globus wird geladen...

Nächste Überflüge

Höhenverlauf

Altitude vs Time

uPlot chart will show altitude changes over time

Zweizeiliger Elementsatz

1 66246C 25245M 25303.07687500 .00468920 00000+0 73882-3 0 3036
2 66246 53.1599 182.3337 0004965 303.9348 140.5218 16.02669778 13
Epoch: 30. Okt. 2025 • Age: 27 hours

Aktueller Status

Höhe 270.7 km
Geschwindigkeit 7.75 km/s
Subsatellitenpunkt 38.58°N, 131.32°W
Startdatum 29. Okt. 2025
Alter 2 days
Typ internet

Technische Details

Klassifizierung Payload
Masse 575.00 kg
Trockenmasse 530.00 kg
Gesamtmasse 575.00 kg
Länge 0.30 m
Durchmesser 4.10 m
Spannweite 29.00 m
Form Box + pan
Hersteller SPXS
Bus-Typ Starlink V2MO
Phasenstatus In Orbit
Besitzer/Staat SPXS/US

Große Konstellationen

Loading constellations...